Time,TemperatureF,DewpointF,PressureIn,WindDirection,WindDirectionDegrees,WindSpeedMPH,WindSpeedGustMPH,Humidity,HourlyPrecipIn,Conditions,Clouds,dailyrainin,SoftwareType,DateUTC
2013-01-31 00:00:00,52.4,51.3,29.38,ESE,105,10.0,30.0,96,0.00,,---,0.00,VWS V14.01,2013-01-31 05:00:00,
2013-01-31 00:02:00,52.3,51.2,29.37,SE,135,14.0,30.0,96,0.00,,---,0.00,VWS V14.01,2013-01-31 05:02:00,
2013-01-31 00:03:00,52.2,51.1,29.37,ENE,71,9.0,30.0,96,0.00,,---,0.00,VWS V14.01,2013-01-31 05:03:00,
2013-01-31 00:08:00,52.2,51.1,29.37,SE,130,16.0,22.0,96,0.00,,---,0.00,VWS V14.01,2013-01-31 05:08:00,
2013-01-31 00:13:00,52.2,51.1,29.37,SE,130,15.0,25.0,96,0.00,,---,0.00,VWS V14.01,2013-01-31 05:13:00,
2013-01-31 00:18:00,52.1,51.0,29.36,ESE,112,19.0,25.0,96,0.00,,---,0.00,VWS V14.01,2013-01-31 05:18:00,
2013-01-31 00:23:00,52.2,51.1,29.36,SE,127,14.0,30.0,96,0.00,,---,0.00,VWS V14.01,2013-01-31 05:23:00,
2013-01-31 00:28:00,52.1,51.0,29.36,ESE,109,14.0,30.0,96,0.00,,---,0.00,VWS V14.01,2013-01-31 05:28:00,
2013-01-31 00:30:00,52.3,51.2,29.35,ESE,108,26.0,30.0,96,0.00,,---,0.00,VWS V14.01,2013-01-31 05:30:00,
2013-01-31 00:33:00,52.2,51.1,29.36,East,90,10.0,30.0,96,0.00,,---,0.00,VWS V14.01,2013-01-31 05:33:00,
2013-01-31 00:38:00,52.3,51.2,29.35,SE,126,18.0,26.0,96,0.00,,---,0.00,VWS V14.01,2013-01-31 05:38:00,
2013-01-31 00:43:00,52.4,51.3,29.35,ESE,119,22.0,28.0,96,0.00,,---,0.00,VWS V14.01,2013-01-31 05:43:00,
2013-01-31 00:48:00,52.4,51.3,29.35,SE,128,9.0,28.0,96,0.00,,---,0.00,VWS V14.01,2013-01-31 05:48:00,
2013-01-31 00:53:00,52.4,51.3,29.34,ESE,110,17.0,31.0,96,0.00,,---,0.00,VWS V14.01,2013-01-31 05:53:00,
2013-01-31 00:58:00,52.4,51.3,29.34,ESE,113,9.0,31.0,96,0.00,,---,0.00,VWS V14.01,2013-01-31 05:58:00,
2013-01-31 01:00:00,52.5,51.4,29.34,SE,128,16.0,31.0,96,0.00,,---,0.00,VWS V14.01,2013-01-31 06:00:00,
2013-01-31 01:03:00,52.5,51.4,29.34,ESE,117,18.0,31.0,96,0.00,,---,0.00,VWS V14.01,2013-01-31 06:03:00,
2013-01-31 01:08:00,52.5,51.4,29.34,ENE,75,17.0,24.0,96,0.00,,---,0.00,VWS V14.01,2013-01-31 06:08:00,
2013-01-31 01:13:00,52.5,51.4,29.34,ESE,117,12.0,24.0,96,0.00,,---,0.00,VWS V14.01,2013-01-31 06:13:00,
2013-01-31 01:18:00,52.7,51.6,29.34,East,88,9.0,27.0,96,0.00,,---,0.00,VWS V14.01,2013-01-31 06:18:00,
2013-01-31 01:23:00,53.0,52.2,29.34,East,101,17.0,27.0,97,0.00,,---,0.00,VWS V14.01,2013-01-31 06:23:00,
2013-01-31 01:28:00,53.4,52.3,29.33,ESE,113,14.0,27.0,96,0.00,,---,0.00,VWS V14.01,2013-01-31 06:28:00,
2013-01-31 01:30:00,54.5,53.7,29.33,SE,126,11.0,33.0,97,0.00,,---,0.00,VWS V14.01,2013-01-31 06:30:00,
2013-01-31 01:33:00,54.3,53.5,29.33,ESE,121,16.0,33.0,97,0.00,,---,0.00,VWS V14.01,2013-01-31 06:33:00,
2013-01-31 01:38:00,54.3,53.2,29.33,ESE,115,17.0,24.0,96,0.00,,---,0.00,VWS V14.01,2013-01-31 06:38:00,
2013-01-31 01:43:00,53.6,52.2,29.32,ESE,123,12.0,25.0,95,0.00,,---,0.00,VWS V14.01,2013-01-31 06:43:00,
2013-01-31 01:48:00,53.1,51.7,29.32,ESE,113,10.0,25.0,95,0.00,,---,0.00,VWS V14.01,2013-01-31 06:48:00,
2013-01-31 01:53:00,52.7,51.6,29.32,SE,138,6.0,27.0,96,0.00,,---,0.00,VWS V14.01,2013-01-31 06:53:00,
2013-01-31 01:58:00,52.5,51.4,29.32,ESE,113,15.0,27.0,96,0.00,,---,0.00,VWS V14.01,2013-01-31 06:58:00,
2013-01-31 02:00:00,52.4,51.3,29.30,SE,134,17.0,27.0,96,0.00,,---,0.00,VWS V14.01,2013-01-31 07:00:00,
2013-01-31 02:03:00,52.3,51.2,29.31,NNE,19,12.0,27.0,96,0.00,,---,0.00,VWS V14.01,2013-01-31 07:03:00,
2013-01-31 02:08:00,52.4,51.3,29.30,ESE,105,10.0,19.0,96,0.00,,---,0.00,VWS V14.01,2013-01-31 07:08:00,
2013-01-31 02:13:00,52.5,51.4,29.30,East,95,17.0,22.0,96,0.00,,---,0.00,VWS V14.01,2013-01-31 07:13:00,
2013-01-31 02:18:00,52.7,51.6,29.29,ENE,57,9.0,27.0,96,0.00,,---,0.00,VWS V14.01,2013-01-31 07:18:00,
2013-01-31 02:23:00,52.9,52.1,29.29,ENE,78,9.0,27.0,97,0.00,,---,0.00,VWS V14.01,2013-01-31 07:23:00,
2013-01-31 02:28:00,52.9,52.1,29.28,East,93,9.0,28.0,97,0.00,,---,0.00,VWS V14.01,2013-01-31 07:28:00,
2013-01-31 02:30:00,52.7,51.6,29.27,ENE,76,13.0,28.0,96,0.00,,---,0.00,VWS V14.01,2013-01-31 07:30:00,
2013-01-31 02:33:00,52.7,51.6,29.27,ENE,73,17.0,28.0,96,0.00,,---,0.00,VWS V14.01,2013-01-31 07:33:00,
2013-01-31 02:38:00,52.6,51.5,29.27,NE,55,11.0,21.0,96,0.00,,---,0.00,VWS V14.01,2013-01-31 07:38:00,
2013-01-31 02:43:00,52.4,51.3,29.26,East,86,7.0,27.0,96,0.00,,---,0.00,VWS V14.01,2013-01-31 07:43:00,
2013-01-31 02:48:00,52.3,51.5,29.26,ESE,119,15.0,27.0,97,0.00,,---,0.00,VWS V14.01,2013-01-31 07:48:00,
2013-01-31 02:53:00,52.3,51.5,29.25,NE,54,5.0,27.0,97,0.00,,---,0.00,VWS V14.01,2013-01-31 07:53:00,
2013-01-31 02:58:00,52.4,51.6,29.25,East,98,7.0,28.0,97,0.00,,---,0.00,VWS V14.01,2013-01-31 07:58:00,
2013-01-31 03:00:00,52.5,51.7,29.25,ENE,75,15.0,28.0,97,0.00,,---,0.00,VWS V14.01,2013-01-31 08:00:00,
2013-01-31 03:03:00,52.5,51.7,29.25,East,79,14.0,28.0,97,0.00,,---,0.00,VWS V14.01,2013-01-31 08:03:00,
2013-01-31 03:08:00,52.6,51.8,29.24,ESE,115,13.0,26.0,97,0.00,,---,0.00,VWS V14.01,2013-01-31 08:08:00,
2013-01-31 03:13:00,52.5,51.4,29.24,East,90,16.0,26.0,96,0.00,,---,0.00,VWS V14.01,2013-01-31 08:13:00,
2013-01-31 03:18:00,52.3,51.2,29.23,SE,126,9.0,26.0,96,0.00,,---,0.00,VWS V14.01,2013-01-31 08:18:00,
2013-01-31 03:23:00,52.2,51.1,29.22,East,82,8.0,31.0,96,0.00,,---,0.00,VWS V14.01,2013-01-31 08:23:00,
2013-01-31 03:28:00,52.5,51.4,29.22,East,98,10.0,31.0,96,0.00,,---,0.00,VWS V14.01,2013-01-31 08:28:00,
2013-01-31 03:30:00,52.7,51.6,29.21,NE,40,26.0,33.0,96,0.00,,---,0.00,VWS V14.01,2013-01-31 08:30:00,
2013-01-31 03:33:00,52.7,51.6,29.22,East,101,10.0,31.0,96,0.00,,---,0.00,VWS V14.01,2013-01-31 08:33:00,
2013-01-31 03:38:00,52.8,51.4,29.21,NE,35,10.0,37.0,95,0.00,,---,0.00,VWS V14.01,2013-01-31 08:38:00,
2013-01-31 03:43:00,52.7,51.3,29.20,ENE,73,15.0,37.0,95,0.00,,---,0.00,VWS V14.01,2013-01-31 08:43:00,
2013-01-31 03:48:00,52.9,51.5,29.20,East,87,15.0,37.0,95,0.00,,---,0.00,VWS V14.01,2013-01-31 08:48:00,
2013-01-31 03:53:00,53.0,51.6,29.19,ENE,73,18.0,37.0,95,0.00,,---,0.00,VWS V14.01,2013-01-31 08:53:00,
2013-01-31 03:58:00,53.0,51.6,29.19,ESE,110,10.0,37.0,95,0.00,,---,0.00,VWS V14.01,2013-01-31 08:58:00,
2013-01-31 04:00:00,52.9,51.5,29.18,SE,140,18.0,37.0,95,0.00,,---,0.00,VWS V14.01,2013-01-31 09:00:00,
2013-01-31 04:03:00,52.9,51.5,29.18,SE,128,20.0,37.0,95,0.00,,---,0.00,VWS V14.01,2013-01-31 09:03:00,
2013-01-31 04:08:00,52.9,51.5,29.17,ESE,106,17.0,25.0,95,0.00,,---,0.00,VWS V14.01,2013-01-31 09:08:00,
2013-01-31 04:13:00,52.9,51.5,29.17,East,82,32.0,33.0,95,0.00,,---,0.00,VWS V14.01,2013-01-31 09:13:00,
2013-01-31 04:18:00,52.9,51.5,29.17,ENE,74,23.0,33.0,95,0.00,,---,0.00,VWS V14.01,2013-01-31 09:18:00,
2013-01-31 04:23:00,52.9,51.5,29.17,East,84,14.0,33.0,95,0.00,,---,0.00,VWS V14.01,2013-01-31 09:23:00,
2013-01-31 04:28:00,53.0,51.6,29.16,NE,37,22.0,33.0,95,0.00,,---,0.00,VWS V14.01,2013-01-31 09:28:00,
2013-01-31 04:30:00,53.0,51.6,29.15,ESE,117,19.0,33.0,95,0.00,,---,0.00,VWS V14.01,2013-01-31 09:30:00,
2013-01-31 04:33:00,53.0,51.6,29.15,ESE,115,8.0,33.0,95,0.00,,---,0.00,VWS V14.01,2013-01-31 09:33:00,
2013-01-31 04:38:00,53.1,51.7,29.15,ESE,119,12.0,29.0,95,0.00,,---,0.00,VWS V14.01,2013-01-31 09:38:00,
2013-01-31 04:43:00,53.1,51.7,29.13,ESE,106,21.0,29.0,95,0.00,,---,0.00,VWS V14.01,2013-01-31 09:43:00,
2013-01-31 04:48:00,53.3,51.9,29.12,East,88,25.0,33.0,95,0.00,,---,0.00,VWS V14.01,2013-01-31 09:48:00,
2013-01-31 04:53:00,53.6,52.2,29.12,ESE,106,20.0,33.0,95,0.00,,---,0.00,VWS V14.01,2013-01-31 09:53:00,
2013-01-31 04:58:00,53.7,52.3,29.12,NE,51,5.0,33.0,95,0.00,,---,0.00,VWS V14.01,2013-01-31 09:58:00,
2013-01-31 05:00:00,53.6,51.9,29.11,East,89,14.0,33.0,94,0.00,,---,0.00,VWS V14.01,2013-01-31 10:00:00,
2013-01-31 05:03:00,53.8,52.1,29.12,East,90,10.0,33.0,94,0.00,,---,0.00,VWS V14.01,2013-01-31 10:03:00,
2013-01-31 05:08:00,53.5,51.8,29.10,East,101,15.0,40.0,94,0.00,,---,0.00,VWS V14.01,2013-01-31 10:08:00,
2013-01-31 05:13:00,53.1,51.4,29.11,ENE,65,12.0,40.0,94,0.00,,---,0.00,VWS V14.01,2013-01-31 10:13:00,
2013-01-31 05:18:00,52.8,51.1,29.10,East,86,14.0,40.0,94,0.00,,---,0.00,VWS V14.01,2013-01-31 10:18:00,
2013-01-31 05:23:00,52.4,50.7,29.10,NNE,18,9.0,40.0,94,0.00,,---,0.00,VWS V14.01,2013-01-31 10:23:00,
2013-01-31 05:28:00,52.2,50.5,29.09,East,90,6.0,40.0,94,0.00,,---,0.00,VWS V14.01,2013-01-31 10:28:00,
2013-01-31 05:30:00,52.1,50.7,29.09,East,97,7.0,40.0,95,0.00,,---,0.00,VWS V14.01,2013-01-31 10:30:00,
2013-01-31 05:33:00,52.1,50.7,29.08,ENE,74,14.0,40.0,95,0.00,,---,0.00,VWS V14.01,2013-01-31 10:33:00,
2013-01-31 05:38:00,52.0,50.6,29.08,ESE,117,11.0,25.0,95,0.00,,---,0.00,VWS V14.01,2013-01-31 10:38:00,
2013-01-31 05:43:00,52.0,50.6,29.08,SSE,150,17.0,33.0,95,0.00,,---,0.00,VWS V14.01,2013-01-31 10:43:00,
2013-01-31 05:48:00,51.9,50.5,29.08,NE,35,16.0,34.0,95,0.00,,---,0.00,VWS V14.01,2013-01-31 10:48:00,
2013-01-31 05:53:00,52.1,50.7,29.07,NE,49,10.0,34.0,95,0.00,,---,0.00,VWS V14.01,2013-01-31 10:53:00,
2013-01-31 05:58:00,52.2,51.1,29.06,ESE,118,10.0,35.0,96,0.00,,---,0.00,VWS V14.01,2013-01-31 10:58:00,
2013-01-31 06:00:00,52.3,51.2,29.06,East,84,15.0,36.0,96,0.00,,---,0.00,VWS V14.01,2013-01-31 11:00:00,
2013-01-31 06:03:00,52.2,51.1,29.06,NE,49,14.0,36.0,96,0.00,,---,0.00,VWS V14.01,2013-01-31 11:03:00,
2013-01-31 06:08:00,52.3,51.2,29.06,East,85,18.0,29.0,96,0.00,,---,0.00,VWS V14.01,2013-01-31 11:08:00,
2013-01-31 06:13:00,52.7,51.6,29.05,East,89,18.0,29.0,96,0.00,,---,0.00,VWS V14.01,2013-01-31 11:13:00,
2013-01-31 06:18:00,52.6,51.5,29.05,ESE,106,20.0,29.0,96,0.00,,---,0.00,VWS V14.01,2013-01-31 11:18:00,
2013-01-31 06:23:00,52.5,51.1,29.05,ESE,123,9.0,29.0,95,0.00,,---,0.00,VWS V14.01,2013-01-31 11:23:00,
2013-01-31 06:28:00,52.3,50.9,29.04,ENE,65,19.0,29.0,95,0.00,,---,0.00,VWS V14.01,2013-01-31 11:28:00,
2013-01-31 06:30:00,52.2,51.1,29.02,NE,40,18.0,36.0,96,0.00,,---,0.00,VWS V14.01,2013-01-31 11:30:00,
2013-01-31 06:33:00,52.2,51.1,29.02,ESE,107,5.0,36.0,96,0.00,,---,0.00,VWS V14.01,2013-01-31 11:33:00,
2013-01-31 06:38:00,52.2,51.1,29.03,East,85,9.0,24.0,96,0.00,,---,0.00,VWS V14.01,2013-01-31 11:38:00,
2013-01-31 06:43:00,52.2,51.1,29.02,East,87,26.0,26.0,96,0.00,,---,0.00,VWS V14.01,2013-01-31 11:43:00,
2013-01-31 06:48:00,52.2,50.8,29.02,ESE,122,22.0,30.0,95,0.00,,---,0.00,VWS V14.01,2013-01-31 11:48:00,
2013-01-31 06:53:00,52.3,50.9,29.01,ESE,103,15.0,30.0,95,0.00,,---,0.00,VWS V14.01,2013-01-31 11:53:00,
2013-01-31 06:58:00,52.3,50.9,29.00,NE,56,12.0,30.0,95,0.00,,---,0.00,VWS V14.01,2013-01-31 11:58:00,
2013-01-31 07:00:00,52.3,50.9,29.00,ENE,64,13.0,30.0,95,0.01,,---,0.01,VWS V14.01,2013-01-31 12:00:00,
2013-01-31 07:03:00,52.3,50.9,29.00,ENE,61,16.0,30.0,95,0.01,,---,0.01,VWS V14.01,2013-01-31 12:03:00,
2013-01-31 07:08:00,52.3,50.9,29.00,ENE,59,14.0,24.0,95,0.01,,---,0.01,VWS V14.01,2013-01-31 12:08:00,
2013-01-31 07:13:00,52.3,50.9,28.99,ENE,77,26.0,33.0,95,0.01,,---,0.01,VWS V14.01,2013-01-31 12:13:00,
2013-01-31 07:18:00,52.4,51.0,28.98,ENE,74,17.0,33.0,95,0.01,,---,0.01,VWS V14.01,2013-01-31 12:18:00,
2013-01-31 07:23:00,52.3,50.9,28.96,SE,126,5.0,33.0,95,0.01,,---,0.01,VWS V14.01,2013-01-31 12:23:00,
2013-01-31 07:28:00,52.5,51.4,28.96,ESE,105,29.0,33.0,96,0.01,,---,0.01,VWS V14.01,2013-01-31 12:28:00,
2013-01-31 07:30:00,52.7,51.6,28.94,East,82,17.0,36.0,96,0.01,,---,0.01,VWS V14.01,2013-01-31 12:30:00,
2013-01-31 07:33:00,52.6,51.5,28.94,ESE,104,12.0,33.0,96,0.01,,---,0.01,VWS V14.01,2013-01-31 12:33:00,
2013-01-31 07:38:00,52.8,51.7,28.94,East,79,28.0,34.0,96,0.01,,---,0.01,VWS V14.01,2013-01-31 12:38:00,
2013-01-31 07:43:00,52.9,51.8,28.93,NE,56,8.0,34.0,96,0.01,,---,0.01,VWS V14.01,2013-01-31 12:43:00,
2013-01-31 07:48:00,53.1,52.0,28.92,ENE,65,7.0,38.0,96,0.01,,---,0.01,VWS V14.01,2013-01-31 12:48:00,
2013-01-31 07:53:00,53.4,52.3,28.92,East,79,19.0,38.0,96,0.01,,---,0.01,VWS V14.01,2013-01-31 12:53:00,
2013-01-31 07:58:00,53.9,52.8,28.91,East,98,25.0,39.0,96,0.01,,---,0.01,VWS V14.01,2013-01-31 12:58:00,
2013-01-31 08:00:00,54.3,53.2,28.91,ENE,61,16.0,39.0,96,0.01,,---,0.01,VWS V14.01,2013-01-31 13:00:00,
2013-01-31 08:03:00,54.2,53.1,28.91,ESE,104,20.0,39.0,96,0.01,,---,0.01,VWS V14.01,2013-01-31 13:03:00,
2013-01-31 08:08:00,54.4,53.3,28.91,NE,42,14.0,37.0,96,0.00,,---,0.01,VWS V14.01,2013-01-31 13:08:00,
2013-01-31 08:13:00,54.7,53.3,28.91,East,80,14.0,47.0,95,0.00,,---,0.01,VWS V14.01,2013-01-31 13:13:00,
2013-01-31 08:18:00,54.6,53.2,28.92,East,90,21.0,47.0,95,0.01,,---,0.02,VWS V14.01,2013-01-31 13:18:00,
2013-01-31 08:23:00,54.5,53.1,28.92,SSE,147,14.0,47.0,95,0.01,,---,0.02,VWS V14.01,2013-01-31 13:23:00,
2013-01-31 08:30:00,54.6,53.2,28.91,East,90,20.0,47.0,95,0.02,,---,0.03,VWS V14.01,2013-01-31 13:30:00,
2013-01-31 09:00:00,55.1,53.1,28.89,East,90,20.0,43.0,93,0.02,,---,0.03,VWS V14.01,2013-01-31 14:00:00,
2013-01-31 09:30:00,54.5,52.8,28.86,East,90,16.0,42.0,94,0.05,,---,0.06,VWS V14.01,2013-01-31 14:30:00,
2013-01-31 10:00:00,53.2,51.8,28.83,East,90,12.0,31.0,95,0.04,,---,0.07,VWS V14.01,2013-01-31 15:00:00,
2013-01-31 10:30:00,52.8,51.4,28.79,East,90,14.0,33.0,95,0.04,,---,0.07,VWS V14.01,2013-01-31 15:30:00,
2013-01-31 11:00:00,52.3,51.2,28.77,East,90,16.0,34.0,96,0.01,,---,0.07,VWS V14.01,2013-01-31 16:00:00,
2013-01-31 11:52:00,52.3,51.2,28.77,East,90,16.0,34.0,96,0.01,,---,0.07,VWS V14.01,2013-01-31 16:52:00,
2013-01-31 11:57:00,51.2,45.6,28.79,SE,136,17.0,33.0,81,0.00,,---,0.07,VWS V14.01,2013-01-31 16:57:00,
2013-01-31 12:00:00,49.8,44.5,28.80,SE,135,11.0,33.0,82,0.00,,---,0.07,VWS V14.01,2013-01-31 17:00:00,
2013-01-31 12:02:00,50.2,45.2,28.80,SE,130,24.0,33.0,83,0.00,,---,0.07,VWS V14.01,2013-01-31 17:02:00,
2013-01-31 12:07:00,49.5,44.6,28.79,SE,132,7.0,21.0,83,0.00,,---,0.07,VWS V14.01,2013-01-31 17:07:00,
2013-01-31 12:12:00,49.1,44.2,28.80,SE,130,7.0,21.0,83,0.00,,---,0.07,VWS V14.01,2013-01-31 17:12:00,
2013-01-31 12:17:00,48.7,44.1,28.80,ESE,119,9.0,21.0,84,0.00,,---,0.07,VWS V14.01,2013-01-31 17:17:00,
2013-01-31 12:22:00,48.4,43.8,28.80,ESE,105,11.0,21.0,84,0.00,,---,0.07,VWS V14.01,2013-01-31 17:22:00,
2013-01-31 12:27:00,48.3,43.7,28.82,SE,126,8.0,21.0,84,0.00,,---,0.07,VWS V14.01,2013-01-31 17:27:00,
2013-01-31 12:30:00,48.8,44.5,28.83,ESE,115,17.0,24.0,85,0.00,,---,0.07,VWS V14.01,2013-01-31 17:30:00,
2013-01-31 12:32:00,48.5,43.9,28.83,ESE,107,14.0,21.0,84,0.00,,---,0.07,VWS V14.01,2013-01-31 17:32:00,
2013-01-31 12:36:00,48.9,43.3,28.83,SE,128,14.0,24.0,81,0.00,,---,0.07,VWS V14.01,2013-01-31 17:36:00,
2013-01-31 12:41:00,49.2,42.6,28.85,SSE,155,11.0,27.0,78,0.00,,---,0.07,VWS V14.01,2013-01-31 17:41:00,
2013-01-31 12:46:00,48.7,41.8,28.85,SE,143,15.0,33.0,77,0.00,,---,0.07,VWS V14.01,2013-01-31 17:46:00,
2013-01-31 12:51:00,48.4,40.8,28.86,SSE,155,32.0,33.0,75,0.00,,---,0.07,VWS V14.01,2013-01-31 17:51:00,
2013-01-31 12:56:00,48.3,40.8,28.87,SE,125,16.0,33.0,75,0.00,,---,0.07,VWS V14.01,2013-01-31 17:56:00,
2013-01-31 13:00:00,48.4,40.5,28.88,SSE,153,19.0,33.0,74,0.00,,---,0.07,VWS V14.01,2013-01-31 18:00:00,
2013-01-31 13:01:00,48.6,40.7,28.88,SE,140,29.0,33.0,74,0.00,,---,0.07,VWS V14.01,2013-01-31 18:01:00,
2013-01-31 13:06:00,48.2,40.0,28.88,SE,134,18.0,32.0,73,0.00,,---,0.07,VWS V14.01,2013-01-31 18:06:00,
2013-01-31 13:11:00,48.3,40.8,28.88,SE,130,9.0,33.0,75,0.00,,---,0.07,VWS V14.01,2013-01-31 18:11:00,
2013-01-31 13:16:00,48.3,40.4,28.88,SE,127,14.0,33.0,74,0.00,,---,0.07,VWS V14.01,2013-01-31 18:16:00,
2013-01-31 13:21:00,48.4,40.2,28.88,ESE,103,12.0,41.0,73,0.00,,---,0.07,VWS V14.01,2013-01-31 18:21:00,
2013-01-31 13:26:00,48.6,39.3,28.88,SE,127,21.0,41.0,70,0.00,,---,0.07,VWS V14.01,2013-01-31 18:26:00,
2013-01-31 13:30:00,48.7,36.3,28.89,SSE,148,29.0,41.0,62,0.00,,---,0.07,VWS V14.01,2013-01-31 18:30:00,
2013-01-31 13:31:00,48.6,37.0,28.88,SE,125,27.0,41.0,64,0.00,,---,0.07,VWS V14.01,2013-01-31 18:31:00,
2013-01-31 13:36:00,48.8,36.0,28.89,SSE,167,12.0,30.0,61,0.00,,---,0.07,VWS V14.01,2013-01-31 18:36:00,
2013-01-31 13:41:00,48.9,36.1,28.89,SE,132,18.0,30.0,61,0.00,,---,0.07,VWS V14.01,2013-01-31 18:41:00,
2013-01-31 13:46:00,49.0,34.9,28.89,SSE,157,20.0,30.0,58,0.00,,---,0.07,VWS V14.01,2013-01-31 18:46:00,
2013-01-31 13:51:00,48.4,34.8,28.89,SE,129,16.0,33.0,59,0.00,,---,0.07,VWS V14.01,2013-01-31 18:51:00,
2013-01-31 13:56:00,48.4,33.9,28.90,ESE,122,20.0,33.0,57,0.00,,---,0.07,VWS V14.01,2013-01-31 18:56:00,
2013-01-31 14:00:00,48.0,31.7,28.89,SE,135,15.0,36.0,53,0.00,,---,0.07,VWS V14.01,2013-01-31 19:00:00,
2013-01-31 14:01:00,48.4,32.1,28.91,SSE,164,35.0,36.0,53,0.00,,---,0.07,VWS V14.01,2013-01-31 19:01:00,
2013-01-31 14:06:00,47.8,31.5,28.88,ESE,123,12.0,34.0,53,0.00,,---,0.07,VWS V14.01,2013-01-31 19:06:00,
2013-01-31 14:11:00,47.5,32.2,28.88,SE,128,16.0,35.0,55,0.00,,---,0.07,VWS V14.01,2013-01-31 19:11:00,
2013-01-31 14:16:00,46.9,31.6,28.87,SE,129,21.0,35.0,55,0.00,,---,0.07,VWS V14.01,2013-01-31 19:16:00,
2013-01-31 14:21:00,46.6,31.8,28.92,ESE,119,27.0,35.0,56,0.00,,---,0.07,VWS V14.01,2013-01-31 19:21:00,
2013-01-31 14:26:00,46.5,32.5,28.93,ESE,121,21.0,35.0,58,0.00,,---,0.07,VWS V14.01,2013-01-31 19:26:00,
2013-01-31 14:30:00,46.3,32.3,28.93,SE,138,22.0,35.0,58,0.00,,---,0.07,VWS V14.01,2013-01-31 19:30:00,
2013-01-31 14:31:00,46.3,31.9,28.93,ESE,120,17.0,35.0,57,0.00,,---,0.07,VWS V14.01,2013-01-31 19:31:00,
2013-01-31 14:36:00,46.3,32.3,28.93,SE,126,13.0,30.0,58,0.00,,---,0.07,VWS V14.01,2013-01-31 19:36:00,
2013-01-31 14:41:00,46.3,32.8,28.94,SE,132,17.0,30.0,59,0.00,,---,0.07,VWS V14.01,2013-01-31 19:41:00,
2013-01-31 14:46:00,46.4,32.4,28.95,ESE,117,18.0,30.0,58,0.00,,---,0.07,VWS V14.01,2013-01-31 19:46:00,
2013-01-31 14:51:00,46.2,31.8,28.95,SSE,162,9.0,30.0,57,0.00,,---,0.07,VWS V14.01,2013-01-31 19:51:00,
2013-01-31 14:56:00,46.3,31.9,28.96,ESE,105,16.0,30.0,57,0.00,,---,0.07,VWS V14.01,2013-01-31 19:56:00,
2013-01-31 15:00:00,46.2,30.9,28.96,SE,135,18.0,30.0,55,0.00,,---,0.07,VWS V14.01,2013-01-31 20:00:00,
2013-01-31 15:01:00,46.4,32.0,28.96,SE,130,21.0,30.0,57,0.00,,---,0.07,VWS V14.01,2013-01-31 20:01:00,
2013-01-31 15:06:00,46.1,31.3,28.97,SE,124,12.0,24.0,56,0.00,,---,0.07,VWS V14.01,2013-01-31 20:06:00,
2013-01-31 15:11:00,45.9,31.1,28.97,SSE,147,18.0,24.0,56,0.00,,---,0.07,VWS V14.01,2013-01-31 20:11:00,
2013-01-31 15:16:00,45.6,31.3,28.98,ESE,118,16.0,24.0,57,0.00,,---,0.07,VWS V14.01,2013-01-31 20:16:00,
2013-01-31 15:21:00,45.4,31.1,28.98,SSE,150,15.0,24.0,57,0.00,,---,0.07,VWS V14.01,2013-01-31 20:21:00,
2013-01-31 15:26:00,45.1,30.8,28.98,SE,126,12.0,24.0,57,0.00,,---,0.07,VWS V14.01,2013-01-31 20:26:00,
2013-01-31 15:30:00,44.9,30.2,28.99,SE,127,17.0,24.0,56,0.00,,---,0.07,VWS V14.01,2013-01-31 20:30:00,
2013-01-31 15:31:00,45.1,31.2,28.99,SE,134,12.0,24.0,58,0.00,,---,0.07,VWS V14.01,2013-01-31 20:31:00,
2013-01-31 15:36:00,44.8,30.1,28.99,ESE,122,15.0,25.0,56,0.00,,---,0.07,VWS V14.01,2013-01-31 20:36:00,
2013-01-31 15:41:00,44.7,30.0,29.00,ESE,109,14.0,25.0,56,0.00,,---,0.07,VWS V14.01,2013-01-31 20:41:00,
2013-01-31 15:46:00,44.5,28.0,29.01,ESE,118,15.0,25.0,52,0.00,,---,0.07,VWS V14.01,2013-01-31 20:46:00,
2013-01-31 15:51:00,44.2,27.7,29.01,SE,131,10.0,25.0,52,0.00,,---,0.07,VWS V14.01,2013-01-31 20:51:00,
2013-01-31 15:56:00,44.0,27.5,29.01,ESE,121,19.0,25.0,52,0.00,,---,0.07,VWS V14.01,2013-01-31 20:56:00,
2013-01-31 16:00:00,43.3,25.9,29.01,SE,142,10.0,27.0,50,0.00,,---,0.07,VWS V14.01,2013-01-31 21:00:00,
2013-01-31 16:01:00,43.6,26.2,29.02,SSE,165,10.0,27.0,50,0.00,,---,0.07,VWS V14.01,2013-01-31 21:01:00,
2013-01-31 16:06:00,43.3,26.4,29.02,SE,135,10.0,17.0,51,0.00,,---,0.07,VWS V14.01,2013-01-31 21:06:00,
2013-01-31 16:11:00,43.0,26.1,29.02,SE,131,14.0,22.0,51,0.00,,---,0.07,VWS V14.01,2013-01-31 21:11:00,
2013-01-31 16:16:00,42.9,26.5,29.03,SE,135,12.0,22.0,52,0.00,,---,0.07,VWS V14.01,2013-01-31 21:16:00,
2013-01-31 16:21:00,42.6,26.2,29.04,SE,141,9.0,22.0,52,0.00,,---,0.07,VWS V14.01,2013-01-31 21:21:00,
2013-01-31 16:26:00,42.3,26.4,29.04,East,98,11.0,22.0,53,0.00,,---,0.07,VWS V14.01,2013-01-31 21:26:00,
2013-01-31 16:30:00,41.3,25.5,29.05,SE,132,22.0,24.0,53,0.00,,---,0.07,VWS V14.01,2013-01-31 21:30:00,
2013-01-31 16:31:00,41.8,25.9,29.05,SSE,157,18.0,24.0,53,0.00,,---,0.07,VWS V14.01,2013-01-31 21:31:00,
2013-01-31 16:36:00,41.1,25.3,29.05,SE,134,12.0,25.0,53,0.00,,---,0.07,VWS V14.01,2013-01-31 21:36:00,
2013-01-31 16:41:00,40.6,24.8,29.05,ESE,117,15.0,25.0,53,0.00,,---,0.07,VWS V14.01,2013-01-31 21:41:00,
2013-01-31 16:46:00,40.3,24.1,29.06,SE,138,22.0,36.0,52,0.00,,---,0.07,VWS V14.01,2013-01-31 21:46:00,
2013-01-31 16:51:00,40.1,23.9,29.07,SE,131,17.0,36.0,52,0.00,,---,0.07,VWS V14.01,2013-01-31 21:51:00,
2013-01-31 16:56:00,39.8,23.2,29.07,SE,141,21.0,36.0,51,0.00,,---,0.07,VWS V14.01,2013-01-31 21:56:00,
2013-01-31 17:00:00,39.4,22.8,29.09,ESE,109,17.0,36.0,51,0.00,,---,0.07,VWS V14.01,2013-01-31 22:00:00,
2013-01-31 17:01:00,39.6,22.5,29.08,SE,128,22.0,36.0,50,0.00,,---,0.07,VWS V14.01,2013-01-31 22:01:00,
2013-01-31 17:06:00,39.3,22.7,29.09,SE,138,12.0,19.0,51,0.00,,---,0.07,VWS V14.01,2013-01-31 22:06:00,
2013-01-31 17:11:00,39.1,23.0,29.09,ESE,110,7.0,19.0,52,0.00,,---,0.07,VWS V14.01,2013-01-31 22:11:00,
2013-01-31 17:16:00,38.9,22.8,29.10,ESE,123,11.0,23.0,52,0.00,,---,0.07,VWS V14.01,2013-01-31 22:16:00,
2013-01-31 17:21:00,38.8,22.7,29.10,East,94,11.0,26.0,52,0.00,,---,0.07,VWS V14.01,2013-01-31 22:21:00,
2013-01-31 17:26:00,38.7,22.1,29.10,SE,132,20.0,29.0,51,0.00,,---,0.07,VWS V14.01,2013-01-31 22:26:00,
2013-01-31 17:30:00,38.2,21.7,29.12,ESE,115,12.0,31.0,51,0.00,,---,0.07,VWS V14.01,2013-01-31 22:30:00,
2013-01-31 17:31:00,38.4,21.9,29.11,SE,132,14.0,29.0,51,0.00,,---,0.07,VWS V14.01,2013-01-31 22:31:00,
2013-01-31 17:36:00,38.2,21.7,29.11,ESE,121,10.0,24.0,51,0.00,,---,0.07,VWS V14.01,2013-01-31 22:36:00,
2013-01-31 17:41:00,37.9,21.4,29.12,SE,126,14.0,26.0,51,0.00,,---,0.07,VWS V14.01,2013-01-31 22:41:00,
2013-01-31 17:46:00,37.7,21.2,29.12,SE,136,17.0,27.0,51,0.00,,---,0.07,VWS V14.01,2013-01-31 22:46:00,
2013-01-31 17:51:00,37.5,21.0,29.13,SSE,148,9.0,27.0,51,0.00,,---,0.07,VWS V14.01,2013-01-31 22:51:00,
2013-01-31 17:56:00,37.3,20.4,29.14,ESE,123,16.0,32.0,50,0.00,,---,0.07,VWS V14.01,2013-01-31 22:56:00,
2013-01-31 18:00:00,37.0,19.6,29.15,SSE,158,17.0,34.0,49,0.00,,---,0.07,VWS V14.01,2013-01-31 23:00:00,
2013-01-31 18:01:00,37.1,19.7,29.14,SE,137,25.0,32.0,49,0.00,,---,0.07,VWS V14.01,2013-01-31 23:01:00,
2013-01-31 18:06:00,37.0,19.1,29.15,ESE,122,19.0,29.0,48,0.00,,---,0.07,VWS V14.01,2013-01-31 23:06:00,
2013-01-31 18:11:00,36.7,19.4,29.15,SE,142,14.0,29.0,49,0.00,,---,0.07,VWS V14.01,2013-01-31 23:11:00,
2013-01-31 18:16:00,36.4,18.6,29.16,SSE,150,21.0,29.0,48,0.00,,---,0.07,VWS V14.01,2013-01-31 23:16:00,
2013-01-31 18:21:00,36.4,18.1,29.16,SSE,155,30.0,30.0,47,0.00,,---,0.07,VWS V14.01,2013-01-31 23:21:00,
2013-01-31 18:26:00,36.3,18.0,29.16,ESE,120,12.0,30.0,47,0.00,,---,0.07,VWS V14.01,2013-01-31 23:26:00,
2013-01-31 18:30:00,36.0,17.7,29.17,SE,128,15.0,30.0,47,0.00,,---,0.07,VWS V14.01,2013-01-31 23:30:00,
2013-01-31 18:31:00,36.1,17.8,29.17,SE,129,12.0,30.0,47,0.00,,---,0.07,VWS V14.01,2013-01-31 23:31:00,
2013-01-31 18:36:00,36.0,17.7,29.17,SE,136,14.0,20.0,47,0.00,,---,0.07,VWS V14.01,2013-01-31 23:36:00,
2013-01-31 18:41:00,35.9,18.1,29.17,SE,128,24.0,25.0,48,0.00,,---,0.07,VWS V14.01,2013-01-31 23:41:00,
2013-01-31 18:46:00,35.8,17.6,29.17,ESE,123,16.0,25.0,47,0.00,,---,0.07,VWS V14.01,2013-01-31 23:46:00,
2013-01-31 18:51:00,35.7,17.5,29.17,ESE,115,11.0,26.0,47,0.00,,---,0.07,VWS V14.01,2013-01-31 23:51:00,
2013-01-31 18:56:00,35.6,17.4,29.18,SE,140,12.0,26.0,47,0.00,,---,0.07,VWS V14.01,2013-01-31 23:56:00,
2013-01-31 19:00:00,35.4,17.2,29.18,SE,124,17.0,26.0,47,0.00,,---,0.07,VWS V14.01,2013-02-01 00:00:00,
2013-01-31 19:01:00,35.5,17.8,29.18,SE,126,7.0,26.0,48,0.00,,---,0.07,VWS V14.01,2013-02-01 00:01:00,
2013-01-31 19:06:00,35.4,17.7,29.18,SE,136,7.0,18.0,48,0.00,,---,0.07,VWS V14.01,2013-02-01 00:06:00,
2013-01-31 19:11:00,35.2,18.0,29.18,SE,136,8.0,19.0,49,0.00,,---,0.07,VWS V14.01,2013-02-01 00:11:00,
2013-01-31 19:16:00,35.0,18.2,29.18,SSE,150,14.0,21.0,50,0.00,,---,0.07,VWS V14.01,2013-02-01 00:16:00,
2013-01-31 19:21:00,34.9,18.2,29.19,SE,142,17.0,21.0,50,0.00,,---,0.07,VWS V14.01,2013-02-01 00:21:00,
2013-01-31 19:26:00,34.9,17.7,29.19,SE,136,14.0,28.0,49,0.00,,---,0.07,VWS V14.01,2013-02-01 00:26:00,
2013-01-31 19:30:00,34.8,16.1,29.20,SE,146,22.0,32.0,46,0.00,,---,0.07,VWS V14.01,2013-02-01 00:30:00,
2013-01-31 19:31:00,34.7,18.0,29.20,SE,130,14.0,28.0,50,0.00,,---,0.07,VWS V14.01,2013-02-01 00:31:00,
2013-01-31 19:36:00,34.8,16.6,29.20,ESE,123,11.0,22.0,47,0.00,,---,0.07,VWS V14.01,2013-02-01 00:36:00,
2013-01-31 19:41:00,34.8,15.6,29.20,SE,133,14.0,27.0,45,0.00,,---,0.07,VWS V14.01,2013-02-01 00:41:00,
2013-01-31 19:46:00,34.7,16.0,29.20,SE,131,15.0,28.0,46,0.00,,---,0.07,VWS V14.01,2013-02-01 00:46:00,
2013-01-31 19:51:00,34.5,15.9,29.20,ESE,113,14.0,28.0,46,0.00,,---,0.07,VWS V14.01,2013-02-01 00:51:00,
2013-01-31 19:56:00,34.5,15.9,29.21,SE,129,12.0,28.0,46,0.00,,---,0.07,VWS V14.01,2013-02-01 00:56:00,
2013-01-31 20:00:00,34.3,15.7,29.21,SSE,147,16.0,28.0,46,0.00,,---,0.07,VWS V14.01,2013-02-01 01:00:00,
2013-01-31 20:01:00,34.3,15.7,29.21,SE,138,14.0,28.0,46,0.00,,---,0.07,VWS V14.01,2013-02-01 01:01:00,
2013-01-31 20:06:00,34.3,15.7,29.21,SE,136,15.0,26.0,46,0.00,,---,0.07,VWS V14.01,2013-02-01 01:06:00,
2013-01-31 20:11:00,34.2,15.6,29.21,East,84,8.0,26.0,46,0.00,,---,0.07,VWS V14.01,2013-02-01 01:11:00,
2013-01-31 20:16:00,34.1,16.0,29.22,SE,129,13.0,26.0,47,0.00,,---,0.07,VWS V14.01,2013-02-01 01:16:00,
2013-01-31 20:21:00,34.0,16.4,29.22,ESE,115,15.0,26.0,48,0.00,,---,0.07,VWS V14.01,2013-02-01 01:21:00,
2013-01-31 20:26:00,33.9,16.3,29.22,ESE,121,7.0,26.0,48,0.00,,---,0.07,VWS V14.01,2013-02-01 01:26:00,
2013-01-31 20:30:00,33.9,15.8,29.23,SE,134,12.0,32.0,47,0.00,,---,0.07,VWS V14.01,2013-02-01 01:30:00,
2013-01-31 20:31:00,33.8,16.2,29.23,SE,128,5.0,26.0,48,0.00,,---,0.07,VWS V14.01,2013-02-01 01:31:00,
2013-01-31 20:36:00,33.8,15.7,29.23,SE,136,16.0,23.0,47,0.00,,---,0.07,VWS V14.01,2013-02-01 01:36:00,
2013-01-31 20:41:00,33.9,15.8,29.23,SE,136,19.0,29.0,47,0.00,,---,0.07,VWS V14.01,2013-02-01 01:41:00,
2013-01-31 20:46:00,33.6,16.0,29.24,SE,132,19.0,30.0,48,0.00,,---,0.07,VWS V14.01,2013-02-01 01:46:00,
2013-01-31 20:51:00,33.5,15.9,29.23,ESE,116,18.0,31.0,48,0.00,,---,0.07,VWS V14.01,2013-02-01 01:51:00,
2013-01-31 20:56:00,33.3,15.3,29.24,ESE,117,15.0,31.0,47,0.00,,---,0.07,VWS V14.01,2013-02-01 01:56:00,
2013-01-31 21:00:00,33.1,14.6,29.24,SSE,151,8.0,31.0,46,0.00,,---,0.07,VWS V14.01,2013-02-01 02:00:00,
2013-01-31 21:01:00,33.2,15.2,29.24,ESE,113,11.0,31.0,47,0.00,,---,0.07,VWS V14.01,2013-02-01 02:01:00,
2013-01-31 21:06:00,33.0,14.5,29.24,SSE,157,10.0,17.0,46,0.00,,---,0.07,VWS V14.01,2013-02-01 02:06:00,
2013-01-31 21:11:00,33.0,14.5,29.25,SSE,166,10.0,28.0,46,0.00,,---,0.07,VWS V14.01,2013-02-01 02:11:00,
2013-01-31 21:16:00,32.9,13.9,29.25,ESE,117,17.0,28.0,45,0.00,,---,0.07,VWS V14.01,2013-02-01 02:16:00,
2013-01-31 21:21:00,32.8,13.8,29.25,SE,128,15.0,28.0,45,0.00,,---,0.07,VWS V14.01,2013-02-01 02:21:00,
2013-01-31 21:26:00,32.6,14.1,29.26,ESE,107,7.0,28.0,46,0.00,,---,0.07,VWS V14.01,2013-02-01 02:26:00,
2013-01-31 21:30:00,32.5,13.5,29.26,SE,127,10.0,28.0,45,0.00,,---,0.07,VWS V14.01,2013-02-01 02:30:00,
2013-01-31 21:31:00,32.6,13.6,29.26,SE,141,18.0,28.0,45,0.00,,---,0.07,VWS V14.01,2013-02-01 02:31:00,
2013-01-31 21:36:00,32.5,13.5,29.26,SE,136,15.0,19.0,45,0.00,,---,0.07,VWS V14.01,2013-02-01 02:36:00,
2013-01-31 21:41:00,32.6,13.1,29.26,ESE,113,7.0,27.0,44,0.00,,---,0.07,VWS V14.01,2013-02-01 02:41:00,
2013-01-31 21:46:00,32.4,13.4,29.26,SE,135,11.0,27.0,45,0.00,,---,0.07,VWS V14.01,2013-02-01 02:46:00,
2013-01-31 21:51:00,32.3,13.4,29.26,East,94,9.0,27.0,45,0.00,,---,0.07,VWS V14.01,2013-02-01 02:51:00,
2013-01-31 21:56:00,32.2,13.8,29.26,SE,133,13.0,27.0,46,0.00,,---,0.07,VWS V14.01,2013-02-01 02:56:00,
2013-01-31 22:00:00,31.9,14.0,29.27,SE,133,14.0,27.0,47,0.00,,---,0.07,VWS V14.01,2013-02-01 03:00:00,
2013-01-31 22:01:00,32.0,14.1,29.27,SE,136,6.0,27.0,47,0.00,,---,0.07,VWS V14.01,2013-02-01 03:01:00,
2013-01-31 22:06:00,31.9,14.0,29.27,SE,135,12.0,14.0,47,0.00,,---,0.07,VWS V14.01,2013-02-01 03:06:00,
2013-01-31 22:11:00,31.8,13.9,29.27,SSE,147,14.0,21.0,47,0.00,,---,0.07,VWS V14.01,2013-02-01 03:11:00,
2013-01-31 22:16:00,31.7,13.8,29.27,SE,134,12.0,21.0,47,0.00,,---,0.07,VWS V14.01,2013-02-01 03:16:00,
2013-01-31 22:21:00,31.7,13.8,29.27,SE,131,9.0,25.0,47,0.00,,---,0.07,VWS V14.01,2013-02-01 03:21:00,
2013-01-31 22:26:00,31.6,13.7,29.28,ESE,121,22.0,25.0,47,0.00,,---,0.07,VWS V14.01,2013-02-01 03:26:00,
2013-01-31 22:30:00,31.5,13.6,29.28,SE,138,10.0,25.0,47,0.00,,---,0.07,VWS V14.01,2013-02-01 03:30:00,
2013-01-31 22:31:00,31.6,13.7,29.28,ESE,121,8.0,25.0,47,0.00,,---,0.07,VWS V14.01,2013-02-01 03:31:00,
2013-01-31 22:36:00,31.4,13.5,29.28,SE,144,9.0,16.0,47,0.00,,---,0.07,VWS V14.01,2013-02-01 03:36:00,
2013-01-31 22:41:00,31.4,13.5,29.28,SE,138,17.0,22.0,47,0.00,,---,0.07,VWS V14.01,2013-02-01 03:41:00,
2013-01-31 22:46:00,31.4,13.5,29.28,ESE,122,13.0,22.0,47,0.00,,---,0.07,VWS V14.01,2013-02-01 03:46:00,
2013-01-31 22:51:00,31.2,13.3,29.28,ESE,121,10.0,23.0,47,0.00,,---,0.07,VWS V14.01,2013-02-01 03:51:00,
2013-01-31 22:56:00,31.1,13.7,29.29,ESE,114,13.0,25.0,48,0.00,,---,0.07,VWS V14.01,2013-02-01 03:56:00,
2013-01-31 23:00:00,31.0,13.1,29.30,SE,134,16.0,25.0,47,0.00,,---,0.07,VWS V14.01,2013-02-01 04:00:00,
2013-01-31 23:01:00,31.1,13.2,29.29,SE,141,18.0,25.0,47,0.00,,---,0.07,VWS V14.01,2013-02-01 04:01:00,
2013-01-31 23:06:00,31.1,13.2,29.30,SE,128,22.0,24.0,47,0.00,,---,0.07,VWS V14.01,2013-02-01 04:06:00,
2013-01-31 23:11:00,31.1,13.2,29.30,ESE,115,15.0,24.0,47,0.00,,---,0.07,VWS V14.01,2013-02-01 04:11:00,
2013-01-31 23:16:00,30.9,13.5,29.30,SSE,155,12.0,24.0,48,0.00,,---,0.07,VWS V14.01,2013-02-01 04:16:00,
2013-01-31 23:21:00,30.7,13.4,29.31,SSE,148,11.0,24.0,48,0.00,,---,0.07,VWS V14.01,2013-02-01 04:21:00,
2013-01-31 23:26:00,30.7,13.8,29.31,ESE,122,8.0,24.0,49,0.00,,---,0.07,VWS V14.01,2013-02-01 04:26:00,
2013-01-31 23:30:00,30.5,13.6,29.31,SE,129,9.0,24.0,49,0.00,,---,0.07,VWS V14.01,2013-02-01 04:30:00,
2013-01-31 23:31:00,30.5,13.6,29.31,SE,125,9.0,24.0,49,0.00,,---,0.07,VWS V14.01,2013-02-01 04:31:00,
2013-01-31 23:36:00,30.5,13.6,29.31,SE,143,12.0,17.0,49,0.00,,---,0.07,VWS V14.01,2013-02-01 04:36:00,
2013-01-31 23:41:00,30.5,13.2,29.31,ESE,123,11.0,19.0,48,0.00,,---,0.07,VWS V14.01,2013-02-01 04:41:00,
2013-01-31 23:46:00,30.5,13.2,29.31,SSE,150,8.0,20.0,48,0.00,,---,0.07,VWS V14.01,2013-02-01 04:46:00,
2013-01-31 23:51:00,30.5,13.2,29.32,SE,145,13.0,23.0,48,0.00,,---,0.07,VWS V14.01,2013-02-01 04:51:00,
2013-01-31 23:56:00,30.4,13.5,29.32,ESE,121,14.0,23.0,49,0.00,,---,0.07,VWS V14.01,2013-02-01 04:56:00,